Home > Weather > Scranton > Past weeks

Flag for USA Weather for the Past 2 Weeks in Scranton, Pennsylvania, USA

Now
58 °F

Overcast.


Feels Like: 57 °F
Forecast: 47 / 61 °F
Wind: 6 mph from Northwest

Location: Barre - Scranton - Wilkes-Barre / Scranton International Airport

Current Time: May 2, 2016 at 4:27:06 PM

Latest Report: May 2, 2016 at 3:54 PM


Visibility: 8 mi

Pressure: 29.89 "Hg

Humidity: 81%

Dew Point: 52 °F

Location of ScrantonLocation

Historic Weather in Scranton — Graph

°F

Scranton Temperature Yesterday

Maximum temperature yesterday: 52 °F (at 12:54 AM)
Minimum temperature yesterday: 42 °F (at 8:54 AM)
Average temperature yesterday: 47 °F

High & Low Weather Summary for the Past Weeks

 TemperatureHumidityPressure
High78 °F (Apr 18, 4:54 PM)97% (Apr 26, 6:54 AM)30.33 "Hg (Apr 26, 6:54 AM)
Low32 °F (Apr 24, 5:54 AM)12% (Apr 20, 3:54 PM)29.60 "Hg (Apr 26, 12:54 PM)
Average54 °F56%30.02 "Hg
* Reported Apr 17 2:54 PM — May 2 2:54 PM, Scranton, Weather by CustomWeather, © 2016

Note: Actual official high and low records may vary slightly from our data, if they occured in-between our weather recording intervals... More about our weather records

Advertising

Scranton Weather History for the Previous 24 Hours

Scroll right to see more
 ConditionsComfort  
Time TempWeatherWind HumidityBarometerVisibility
2:54 PM
Mon, May 2
59 °FMostly cloudy.9 mph78%29.88 "Hg9 mi
1:54 PM56 °FOvercast.8 mph81%29.89 "Hg10 mi
12:54 PM55 °FOvercast.8 mph80%29.89 "Hg10 mi
11:54 AM52 °FOvercast.6 mph86%29.89 "Hg10 mi
10:54 AM51 °FOvercast.No wind86%29.90 "Hg10 mi
9:54 AM50 °FOvercast.No wind86%29.91 "Hg10 mi
9:03 AM48 °FLight rain. Fog.3 mph93%29.94 "Hg4 mi
8:54 AM48 °FLight rain. Fog.5 mph93%29.95 "Hg2 mi
8:00 AM48 °FLight rain. Fog.No wind89%29.94 "Hg3 mi
7:03 AM48 °FThundershowers. Cloudy.3 mph86%29.91 "Hg9 mi
6:54 AM48 °FThundershowers. Mostly cloudy.5 mph86%29.91 "Hg10 mi
5:54 AM48 °FOvercast.No wind86%29.93 "Hg10 mi
4:54 AM48 °FOvercast.5 mph86%29.96 "Hg10 mi
3:54 AM48 °FOvercast.5 mph89%29.96 "Hg10 mi
2:54 AM48 °FOvercast.No wind89%29.99 "Hg10 mi
1:54 AM49 °FOvercast.No wind86%30.00 "Hg10 mi
12:54 AM49 °FOvercast.No wind86%30.01 "Hg10 mi
11:54 PM
Sun, May 1
48 °FOvercast.3 mph89%30.02 "Hg10 mi
10:54 PM49 °FOvercast.No wind86%30.04 "Hg10 mi
9:54 PM49 °FOvercast.No wind84%30.04 "Hg10 mi
8:54 PM49 °FOvercast.No wind84%30.05 "Hg10 mi
7:54 PM49 °FOvercast.3 mph84%30.03 "Hg10 mi
6:54 PM49 °FOvercast.3 mph84%30.03 "Hg10 mi
5:54 PM49 °FMostly cloudy.3 mph80%30.05 "Hg10 mi
4:54 PM49 °FMore clouds than sun.6 mph80%30.03 "Hg10 mi
Weather by CustomWeather, © 2016

See weather overviewHow to use our weather pages